Location: *
(50.9167°S, 179.4000°W)
Time: 04:26:08
(UTC+00:00)

ATLAS 2AS CENTAUR R/B - Pass Details

Date: 20 June 2024
Orbit: 1019 x 1192 km, 63.7° (Epoch: 21 July)

Event Time Altitude Azimuth Distance (km) Brightness Sun altitude
Exits shadow 17:40:59 21° 212° (SSW) 2,310 4.1 -20.8°
Maximum altitude 17:44:53 34° 163° (SSE) 1,802 3.9 -20.2°
Drops below altitude 10° 17:51:32 10° 99° (E) 3,100 6.1 -19.2°
Sets 17:54:38 0° 90° (E) 4,077 7.2 -18.7°
